DELTA 1 DEB, 21475

Orbit data source: Space-Track

DELTA 1 DEB, 21475 is space debris in SSO originally from a launch on Thu, 12 Jun 1975 UTC launched from the Air Force Western Test Range (AFWTR). Debris objects in space refer to the collection of defunct objects orbiting the Earth. Examples of debris include non-operational satellites, rocket bodies, and fragments generated from explosions, collisions, or faulty payload assembly.

Loading next visibility...
Identifier
21475, 1975-052FK
Orbit
SSO
Country
Flag of USUS
Related business
Manufacturer
Unknown
Mission
Spacecraft
Bus & Motor
Unknown
Mass
Unknown
Launch date (UTC)
1975-06-12 (51 years ago)
Launch vehicle
Unknown
Launch site
Air Force Western Test Range (AFWTR)
Object type
Payload
Rocket body
Debris
Shape & HBR
Unknown shape, 0.1 m
Radar Cross Section
Small (<0.1 m²)

Expand to show TLE details & history
Last TLE update: 1 day ago

TLE from 1 day ago
0 DELTA 1 DEB
1 21475U 75052FK  26123.96502095  .00000032  00000-0  10836-3 0  9994
2 21475  99.6045 293.6222 0090995 341.3584 170.5287 13.54144035725510
Epoch: 2026-05-03T23:09Z
TLE epoch observation values (Epoch: 2026-05-03T23:09:37.810Z)
Latitude
27.55776°
Longitude
-90.60605°
Altitude
1,127.086 km
Speed
7.259 km/s
True Right ascension
07h 54m 38s
True Declination
27° 25' 26"
Sunlit
Object was in daylight at epoch
Visualization orbit readout
Latitude
Unknown
Longitude
Unknown
Altitude
Unknown
Speed
Unknown
Apparent Right ascension
Unknown
Apparent Declination
Unknown
Sunlit
N/A
Visualization observer readout
Local Sidereal Time
11:21:03
Azimuth
Unknown
Elevation
Unknown
Doppler factor
Unknown
Orbital elements
Apogee altitude
1,121.973 km
Perigee altitude
986.709 km
Semi-major axis
7,432.478 km
Eccentricity
0.0091
Inclination
99.6045°
RAAN
293.6222°
Arg. of periapsis
341.3584°
True anomaly
170.69838°
Mean anomaly
170.5287°
Eccentric anomaly
170.61373°
Mean motion
3.38721 °/min
Orbital period
106.28 mins
BSTAR
0.00010836
Loading maneuver chart data...
Computing Atmospheric mass density...
Loading historical data...
Loading historical data...
Loading historical data...
Loading historical data...
Loading historical data...
Loading historical data...
Loading historical data...

Documentation

Showing up to 5 results
|